DRAUGEN current weather conditions

sailwx.info

Wind from 030 at 24 knots

Air temperature 11.0° C
Dewpoint 11.0° C

Last reported at 2015-Jul-06 01:20 UTC.
Time now 2015-Jul-06 02:49 UTC

Location: N 64°22' E 007°47'.
View on Google Maps.

See reports from other nearby stations

  
Tides and Currents Weather Stations Pressure Air Temp Water Temp Dewpoint Dewpoint Depression Visibility Wind Speed Wind Dir Waves Ship Positions
date/time (UTC)wind fromknots sea level pressurealtimeterstation pressurevisibilityair tempwater tempwave heightnotes
2015-Jul-06 01:20 030 24 11.0
2015-Jul-06 00:50 030 22 12.0
2015-Jul-06 00:20 030 24 12.0
2015-Jul-05 23:50 030 22 12.0
2015-Jul-05 23:20 040 22 12.0
2015-Jul-05 22:50 040 22 12.0
2015-Jul-05 22:20 030 23 12.0
2015-Jul-05 21:50 030 23 12.0
2015-Jul-05 21:20 030 24 11.0
2015-Jul-05 20:50 030 23 11.0
2015-Jul-05 20:20 030 20 12.0
2015-Jul-05 19:50 030 22 12.0
2015-Jul-05 19:20 040 24 12.0
2015-Jul-05 18:50 040 23 12.0
2015-Jul-05 18:20 040 23 12.0
2015-Jul-05 17:50 040 24 13.0
2015-Jul-05 17:20 040 24 13.0
2015-Jul-05 16:50 040 24 13.0
2015-Jul-05 16:20 040 26 13.0
2015-Jul-05 15:50 040 26 12.0
2015-Jul-05 15:20 040 25 12.0
2015-Jul-05 14:50 040 25 13.0
2015-Jul-05 14:20 040 26 13.0
2015-Jul-05 13:50 040 26 12.0
2015-Jul-05 13:20 040 27 12.0
2015-Jul-05 12:50 040 25 12.0
2015-Jul-05 12:20 040 25 13.0
2015-Jul-05 11:50 040 23 13.0
2015-Jul-05 11:20 050 25 12.0
2015-Jul-05 10:50 050 27 12.0
2015-Jul-05 09:50 040 25 12.0
2015-Jul-05 09:20 050 24 12.0
2015-Jul-05 08:50 050 22 11.0
2015-Jul-05 08:20 060 22 11.0
2015-Jul-05 07:50 060 20 10.0
2015-Jul-05 07:20 050 24 11.0
2015-Jul-05 06:50 050 24 11.0
2015-Jul-05 06:20 050 24 11.0
2015-Jul-05 05:50 050 23 11.0
2015-Jul-05 05:20 050 23 10.0
2015-Jul-05 04:50 050 26 10.0
2015-Jul-05 04:20 050 25 11.0
2015-Jul-05 03:50 050 25 10.0
2015-Jul-05 03:20 050 25 10.0
2015-Jul-05 02:50 050 25 10.0
2015-Jul-05 02:20 060 25 10.0
2015-Jul-05 01:50 060 20 10.0
2015-Jul-05 01:20 060 25 10.0
2015-Jul-05 00:50 060 20 10.0
2015-Jul-05 00:20 060 20 11.0
2015-Jul-04 23:50 050 20 11.0
2015-Jul-04 23:20 050 20 11.0
2015-Jul-04 22:50 050 19 12.0
2015-Jul-04 22:20 060 13 11.0
2015-Jul-04 21:50 050 13 12.0
2015-Jul-04 21:20 050 12 11.0
2015-Jul-04 20:50 040 13 12.0
2015-Jul-04 20:20 040 11 11.0
2015-Jul-04 19:50 040 11 11.0
2015-Jul-04 19:20 030 11 11.0
2015-Jul-04 18:50 030 11 11.0
2015-Jul-04 18:20 030 11 11.0
2015-Jul-04 17:50 030 10 11.0
2015-Jul-04 17:20 020 12 11.0
2015-Jul-04 16:50 020 12 11.0
2015-Jul-04 16:20 020 10 11.0
2015-Jul-04 15:50 010 7 11.0
2015-Jul-04 15:20 360 11 10.0
2015-Jul-04 14:50 350 10 11.0
2015-Jul-04 14:20 340 8 10.0
2015-Jul-04 13:50 320 8 10.0
2015-Jul-04 13:20 320 7 11.0
2015-Jul-04 12:50 310 9 11.0
2015-Jul-04 12:20 310 10 10.0
2015-Jul-04 11:50 310 7 10.0
2015-Jul-04 11:20 310 8 11.0
2015-Jul-04 10:50 300 11 11.0
2015-Jul-04 10:20 290 13 11.0
2015-Jul-04 09:50 310 8 10.0
2015-Jul-04 09:20 320 10 10.0
2015-Jul-04 08:50 300 10 11.0
2015-Jul-04 08:20 300 13 11.0
2015-Jul-04 07:50 300 12 10.0
2015-Jul-04 07:20 300 13 11.0
2015-Jul-04 06:50 290 14 11.0
2015-Jul-04 06:20 290 15 10.0
2015-Jul-04 05:50 290 16 10.0
2015-Jul-04 05:20 300 17 11.0
2015-Jul-04 04:50 290 18 11.0
2015-Jul-04 04:20 300 19 10.0
2015-Jul-04 03:50 290 20 10.0
2015-Jul-04 03:20 280 18 9.0
2015-Jul-04 02:50 270 19 9.0
2015-Jul-04 02:20 270 19 9.0